Galena, AK

8:09 PM AKDT on June 25, 2017 (GMT -0800)
Pitka

Weather History for PAGA - June, 2013

Change the Weather History Date:

Friday, June 14, 2013

  Actual Average Record
Temperature  
Mean Temperature 67 °F -  
Max Temperature 81 °F 66 °F 81 °F (2013)
Min Temperature 53 °F 49 °F 37 °F (2002)
Cooling Degree Days 2    
Growing Degree Days 17 (Base 50)    
Moisture  
Dew Point 44 °F    
Average Humidity 46    
Maximum Humidity 82    
Minimum Humidity 21    
Precipitation  
Precipitation 0.00 in - - ()
Sea Level Pressure  
Sea Level Pressure 30.12 in    
Wind  
Wind Speed 6 mph (SE)    
Max Wind Speed 16 mph    
Max Gust Speed 24 mph    
Visibility 10 miles    
Events      
Averages and records for this station are not official NWS values.
T = Trace of Precipitation, MM = Missing Value Source: NWS Daily Summary

Daily Weather History Graph

Daily Weather History Graph

Search for Another Location

Airport or City:

Trip Planner

Search our weather history database for the weather conditions in past years. The results will help you decide how hot, cold, wet, or windy it might be!

Date:

Astronomy

Jun. 14, 2013 Rise Set
Actual Time 3:41 AM AKDT 1:15 AM AKDT
Civil Twilight Sun does not set Sun does not set
Nautical Twilight Sun does not set Sun does not set
Astronomical Twilight Sun does not set Sun does not set
Moon 12:11 PM AKDT (6/14) 1:51 AM AKDT (6/14)
Length of Visible Light 24h 00m
Length of Day
21h 34m
Waxing Crescent, 31% of the Moon is Illuminated
Jun 14
Waxing Crescent
Jun 16
First Quarter
Jun 23
Full
Jun 29
Last Quarter
Jul 7
New

Hourly Weather History & Observations

Time (AKDT) Temp. Dew Point Humidity Pressure Visibility Wind Dir Wind Speed Gust Speed Precip Events Conditions
12:58 AM 63.0 °F 42.1 °F 46% 30.08 in 10.0 mi East 4.6 mph - N/A   Clear
1:58 AM 61.0 °F 43.0 °F 52% 30.09 in 10.0 mi East 5.8 mph - N/A   Clear
2:58 AM 59.0 °F 42.1 °F 53% 30.08 in 10.0 mi East 6.9 mph - N/A   Clear
3:58 AM 60.1 °F 37.9 °F 44% 30.09 in 10.0 mi ESE 6.9 mph - N/A   Clear
4:58 AM 55.0 °F 44.1 °F 67% 30.09 in 10.0 mi East 6.9 mph - N/A   Clear
5:27 AM 53.6 °F 48.2 °F 82% 30.09 in 10.0 mi East 5.8 mph - N/A   Partly Cloudy
5:58 AM 54.0 °F 46.0 °F 75% 30.10 in 10.0 mi East 6.9 mph - N/A   Partly Cloudy
6:58 AM 57.0 °F 43.0 °F 59% 30.10 in 10.0 mi ESE 4.6 mph - N/A   Clear
7:30 AM 57.2 °F 44.6 °F 63% 30.11 in 10.0 mi SE 3.5 mph - N/A   Partly Cloudy
7:58 AM 59.0 °F 46.0 °F 62% 30.11 in 10.0 mi East 3.5 mph - N/A   Clear
8:41 AM 62.6 °F 44.6 °F 52% 30.11 in 10.0 mi East 3.5 mph - N/A   Partly Cloudy
8:58 AM 64.0 °F 44.1 °F 48% 30.11 in 10.0 mi ESE 3.5 mph - N/A   Clear
9:58 AM 68.0 °F 42.1 °F 39% 30.11 in 10.0 mi East 4.6 mph - N/A   Clear
10:47 AM 71.6 °F 41.0 °F 33% 30.11 in 10.0 mi SE 4.6 mph - N/A   Partly Cloudy
10:58 AM 72.0 °F 41.0 °F 33% 30.11 in 10.0 mi ESE 4.6 mph - N/A   Partly Cloudy
11:58 AM 75.0 °F 41.0 °F 29% 30.11 in 10.0 mi ESE 3.5 mph - N/A   Clear
12:58 PM 77.0 °F 39.9 °F 26% 30.11 in 10.0 mi ENE 3.5 mph - N/A   Clear
1:58 PM 79.0 °F 39.0 °F 24% 30.10 in 10.0 mi Calm Calm - N/A   Clear
2:58 PM 81.0 °F 37.0 °F 21% 30.12 in 10.0 mi SW 4.6 mph - N/A   Clear
3:58 PM 77.0 °F 43.0 °F 30% 30.13 in 10.0 mi SSW 8.1 mph - N/A   Clear
4:58 PM 75.9 °F 46.0 °F 35% 30.13 in 10.0 mi WSW 9.2 mph - N/A   Mostly Cloudy
5:58 PM 77.0 °F 46.9 °F 34% 30.13 in 10.0 mi WSW 12.7 mph - N/A   Clear
6:58 PM 73.9 °F 48.0 °F 40% 30.14 in 10.0 mi WSW 15.0 mph 24.2 mph N/A   Partly Cloudy
7:58 PM 72.0 °F 50.0 °F 46% 30.16 in 10.0 mi WSW 16.1 mph - N/A   Clear
8:58 PM 71.1 °F 46.9 °F 42% 30.16 in 10.0 mi WSW 12.7 mph - N/A   Clear
9:58 PM 70.0 °F 48.0 °F 46% 30.17 in 10.0 mi WSW 9.2 mph - N/A   Clear
10:58 PM 69.1 °F 46.0 °F 44% 30.18 in 10.0 mi SW 5.8 mph - N/A   Clear
11:58 PM 66.0 °F 48.0 °F 52% 30.20 in 10.0 mi SW 5.8 mph - N/A   Clear